IBS1602 GCLP-LEMD

Flight info

Callsign IBS1602
Flight time N/A
Altitude 36000
Route VASTO UN858 AKUDA DCT GIMAL DCT PESAS DCT PARKA DCT SOTUK
Aircraft A320/M-SDE3FGHIRWY/LB1

Departure

Time 2026-04-28 11:39
Airport Gran Canaria Airport (GCLP)

Arrival

Time N/A
Airport Adolfo Suárez Madrid–Barajas Airport (LEMD)
Time Latitude Longitude Altitude Speed Heading
2026-04-28 11:14 27.93981 -15.38764 87 ft 0 kts 291°
2026-04-28 11:30 27.93965 -15.38716 84 ft 3 kts 290°
2026-04-28 11:30 27.93961 -15.38689 85 ft 4 kts 249°
2026-04-28 11:31 27.93976 -15.38668 87 ft 4 kts 206°
2026-04-28 11:31 27.93994 -15.38659 82 ft 0 kts 201°
2026-04-28 11:33 27.93979 -15.38666 86 ft 6 kts 201°
2026-04-28 11:33 27.93912 -15.38695 87 ft 15 kts 202°
2026-04-28 11:34 27.93820 -15.38737 87 ft 13 kts 201°
2026-04-28 11:34 27.93739 -15.38773 86 ft 12 kts 201°
2026-04-28 11:34 27.93669 -15.38804 83 ft 10 kts 201°
2026-04-28 11:34 27.93598 -15.38835 87 ft 13 kts 201°
2026-04-28 11:35 27.93494 -15.38876 88 ft 19 kts 191°
2026-04-28 11:35 27.93412 -15.38776 72 ft 18 kts 130°
2026-04-28 11:35 27.93282 -15.38808 70 ft 22 kts 202°
2026-04-28 11:35 27.93123 -15.38885 73 ft 27 kts 205°
2026-04-28 11:36 27.92944 -15.38966 83 ft 28 kts 201°
2026-04-28 11:36 27.92766 -15.39045 86 ft 27 kts 201°
2026-04-28 11:36 27.92596 -15.39118 92 ft 25 kts 200°
2026-04-28 11:36 27.92437 -15.39188 94 ft 24 kts 201°
2026-04-28 11:37 27.92289 -15.39255 101 ft 22 kts 201°
2026-04-28 11:37 27.92143 -15.39318 96 ft 23 kts 201°
2026-04-28 11:37 27.91984 -15.39389 93 ft 26 kts 201°
2026-04-28 11:37 27.91900 -15.39329 89 ft 16 kts 97°
2026-04-28 11:38 27.91890 -15.39201 87 ft 18 kts 109°
2026-04-28 11:38 27.91850 -15.39054 78 ft 21 kts 82°
2026-04-28 11:38 27.91971 -15.38966 73 ft 26 kts 21°
2026-04-28 11:38 27.92325 -15.38812 60 ft 88 kts 21°
2026-04-28 11:39 27.93087 -15.38477 44 ft 144 kts 21°
2026-04-28 11:39 27.94147 -15.38006 197 ft 174 kts 22°
2026-04-28 11:39 27.95251 -15.37481 946 ft 171 kts 22°
2026-04-28 11:39 27.96335 -15.36930 1691 ft 171 kts 24°
2026-04-28 11:40 27.97396 -15.36358 2400 ft 167 kts 24°
2026-04-28 11:40 27.98540 -15.35859 2733 ft 187 kts 18°
2026-04-28 11:40 27.99858 -15.35390 2970 ft 211 kts 17°
2026-04-28 11:40 28.01347 -15.34868 3313 ft 236 kts 17°
2026-04-28 11:41 28.02964 -15.34291 3910 ft 248 kts 18°
2026-04-28 11:41 28.04622 -15.33676 4700 ft 253 kts 19°
2026-04-28 11:41 28.06295 -15.32994 5491 ft 258 kts 20°
2026-04-28 11:41 28.07988 -15.32266 6279 ft 263 kts 21°
2026-04-28 11:42 28.09708 -15.31513 7068 ft 267 kts 21°
2026-04-28 11:42 28.11453 -15.30747 7821 ft 271 kts 21°
2026-04-28 11:42 28.13229 -15.29969 8585 ft 276 kts 20°
2026-04-28 11:42 28.15040 -15.29283 9314 ft 281 kts 13°
2026-04-28 11:43 28.16947 -15.28741 10039 ft 285 kts 13°
2026-04-28 11:43 28.18919 -15.28181 10418 ft 303 kts 13°
2026-04-28 11:43 28.21045 -15.27577 10601 ft 326 kts 13°
2026-04-28 11:43 28.23293 -15.26935 11072 ft 337 kts 13°
2026-04-28 11:44 28.25597 -15.26277 11696 ft 343 kts 13°
2026-04-28 11:44 28.27922 -15.25616 12342 ft 348 kts 13°
2026-04-28 11:44 28.30286 -15.24941 12992 ft 352 kts 12°
2026-04-28 11:44 28.32637 -15.24112 13622 ft 357 kts 21°
2026-04-28 11:45 28.34806 -15.22771 14232 ft 362 kts 31°
2026-04-28 11:45 28.36914 -15.21182 14841 ft 365 kts 31°
2026-04-28 11:45 28.39041 -15.19584 15430 ft 368 kts 31°
2026-04-28 11:45 28.41191 -15.17976 16007 ft 372 kts 31°
2026-04-28 11:46 28.43362 -15.16357 16575 ft 375 kts 31°
2026-04-28 11:46 28.45555 -15.14724 17132 ft 378 kts 31°
2026-04-28 11:46 28.47765 -15.13074 17682 ft 381 kts 30°
2026-04-28 11:46 28.49991 -15.11408 18208 ft 385 kts 30°
2026-04-28 11:47 28.52235 -15.09730 18717 ft 388 kts 30°
2026-04-28 11:47 28.54499 -15.08035 19216 ft 391 kts 30°
2026-04-28 11:47 28.56782 -15.06324 19701 ft 394 kts 30°
2026-04-28 11:47 28.59083 -15.04599 20171 ft 398 kts 30°
2026-04-28 11:48 28.61401 -15.02859 20621 ft 401 kts 30°
2026-04-28 11:48 28.63738 -15.01104 21060 ft 404 kts 30°
2026-04-28 11:48 28.66088 -14.99334 21491 ft 407 kts 30°
2026-04-28 11:48 28.68461 -14.97544 21921 ft 410 kts 30°
2026-04-28 11:49 28.70037 -14.96358 22192 ft 412 kts 30°
2026-04-28 11:49 28.72441 -14.94548 22606 ft 415 kts 30°
2026-04-28 11:49 28.74851 -14.92733 22998 ft 417 kts 30°
2026-04-28 11:49 28.77289 -14.90901 23382 ft 420 kts 30°
2026-04-28 11:50 28.80534 -14.88462 23874 ft 424 kts 30°
2026-04-28 11:50 28.83002 -14.86602 24245 ft 427 kts 30°
2026-04-28 11:50 28.84680 -14.85336 24506 ft 428 kts 30°
2026-04-28 11:50 28.87171 -14.83456 24865 ft 431 kts 30°
2026-04-28 11:51 28.89675 -14.81565 25205 ft 433 kts 30°
2026-04-28 11:51 28.92192 -14.79660 25546 ft 435 kts 30°
2026-04-28 11:51 28.94721 -14.77745 25878 ft 437 kts 29°
2026-04-28 11:51 28.97229 -14.75843 26216 ft 439 kts 29°
2026-04-28 11:52 28.99811 -14.73886 26543 ft 441 kts 29°
2026-04-28 11:52 29.02343 -14.71969 26844 ft 444 kts 29°
2026-04-28 11:52 29.04929 -14.70012 27152 ft 446 kts 29°
2026-04-28 11:52 29.07519 -14.68047 27451 ft 448 kts 29°
2026-04-28 11:53 29.10118 -14.66074 27770 ft 450 kts 29°
2026-04-28 11:53 29.12729 -14.64091 28069 ft 452 kts 29°
2026-04-28 11:53 29.15355 -14.62094 28363 ft 453 kts 29°
2026-04-28 11:53 29.17988 -14.60092 28649 ft 455 kts 28°
2026-04-28 11:54 29.20633 -14.58083 28916 ft 457 kts 28°
2026-04-28 11:54 29.23288 -14.56062 29179 ft 459 kts 28°
2026-04-28 11:54 29.25952 -14.54030 29432 ft 461 kts 29°
2026-04-28 11:54 29.28624 -14.51989 29673 ft 463 kts 28°
2026-04-28 11:55 29.31278 -14.49962 29910 ft 464 kts 28°
2026-04-28 11:55 29.33972 -14.47906 30144 ft 466 kts 28°
2026-04-28 11:55 29.36675 -14.45843 30378 ft 468 kts 28°
2026-04-28 11:55 29.39382 -14.43778 30599 ft 469 kts 28°
2026-04-28 11:56 29.42094 -14.41703 30920 ft 468 kts 28°
2026-04-28 11:56 29.44799 -14.39629 31244 ft 467 kts 28°
2026-04-28 11:56 29.47503 -14.37552 31560 ft 466 kts 28°
2026-04-28 11:56 29.50197 -14.35484 31874 ft 465 kts 28°
2026-04-28 11:57 29.52886 -14.33419 32182 ft 465 kts 28°
2026-04-28 11:57 29.55572 -14.31357 32495 ft 464 kts 28°
2026-04-28 11:57 29.58252 -14.29299 32784 ft 463 kts 28°
2026-04-28 11:57 29.60927 -14.27244 33083 ft 462 kts 28°
2026-04-28 11:58 29.63590 -14.25196 33383 ft 461 kts 28°
2026-04-28 11:58 29.66258 -14.23143 33666 ft 460 kts 28°
2026-04-28 11:58 29.68915 -14.21097 33953 ft 459 kts 28°
2026-04-28 11:58 29.71568 -14.19055 34227 ft 459 kts 28°
2026-04-28 11:59 29.74222 -14.17007 34496 ft 458 kts 28°
2026-04-28 11:59 29.76871 -14.14961 34742 ft 457 kts 28°
2026-04-28 11:59 29.79507 -14.12923 34974 ft 457 kts 28°
2026-04-28 11:59 29.82112 -14.10913 35215 ft 456 kts 28°
2026-04-28 12:00 29.84757 -14.08878 35442 ft 456 kts 28°
2026-04-28 12:00 29.87399 -14.06842 35652 ft 456 kts 28°
2026-04-28 12:00 29.90030 -14.04808 35850 ft 455 kts 28°
2026-04-28 12:00 29.92658 -14.02769 36016 ft 456 kts 28°
2026-04-28 12:01 29.97901 -13.98699 36061 ft 453 kts 28°
2026-04-28 12:01 30.03131 -13.94637 36064 ft 453 kts 28°
2026-04-28 12:02 30.08365 -13.90573 36061 ft 453 kts 28°
2026-04-28 12:02 30.13589 -13.86507 36068 ft 453 kts 28°
2026-04-28 12:03 30.18786 -13.82463 36065 ft 453 kts 28°
2026-04-28 12:03 30.24012 -13.78379 36056 ft 453 kts 28°
2026-04-28 12:04 30.29231 -13.74301 36062 ft 453 kts 28°
2026-04-28 12:04 30.34451 -13.70221 36054 ft 453 kts 28°
2026-04-28 12:05 30.39670 -13.66139 36055 ft 453 kts 28°
2026-04-28 12:05 30.44883 -13.62046 36060 ft 452 kts 28°
2026-04-28 12:06 30.50091 -13.57945 36061 ft 452 kts 29°
2026-04-28 12:06 30.55297 -13.53845 36058 ft 452 kts 29°
2026-04-28 12:07 30.60488 -13.49713 36059 ft 452 kts 29°
2026-04-28 12:07 30.65676 -13.45566 36048 ft 453 kts 29°
2026-04-28 12:08 30.70868 -13.41419 36058 ft 452 kts 29°
2026-04-28 12:08 30.76052 -13.37282 36055 ft 452 kts 29°
2026-04-28 12:09 30.81202 -13.33168 36053 ft 452 kts 30°
2026-04-28 12:09 30.86374 -13.29011 36049 ft 452 kts 30°
2026-04-28 12:10 30.91553 -13.24855 36037 ft 451 kts 29°
2026-04-28 12:10 30.96739 -13.20729 36035 ft 451 kts 29°
2026-04-28 12:11 31.01932 -13.16620 36037 ft 451 kts 29°
2026-04-28 12:11 31.07116 -13.12508 36036 ft 450 kts 29°
2026-04-28 12:12 31.12296 -13.08377 36034 ft 450 kts 29°
2026-04-28 12:12 31.17431 -13.04266 36032 ft 451 kts 30°
2026-04-28 12:13 31.22609 -13.00125 36032 ft 450 kts 30°
2026-04-28 12:13 31.27783 -12.95989 36033 ft 450 kts 30°
2026-04-28 12:14 31.32951 -12.91848 36032 ft 450 kts 30°
2026-04-28 12:14 31.38122 -12.87692 36030 ft 450 kts 30°
2026-04-28 12:15 31.43290 -12.83536 36028 ft 451 kts 30°
2026-04-28 12:15 31.48464 -12.79381 36023 ft 451 kts 30°
2026-04-28 12:16 31.53637 -12.75217 36021 ft 451 kts 30°
2026-04-28 12:16 31.58818 -12.71038 36020 ft 452 kts 30°
2026-04-28 12:17 31.63990 -12.66859 36038 ft 450 kts 30°
2026-04-28 12:17 31.69107 -12.62724 36042 ft 449 kts 30°
2026-04-28 12:18 31.74233 -12.58571 36038 ft 447 kts 30°
2026-04-28 12:18 31.79338 -12.54426 36036 ft 445 kts 30°
2026-04-28 12:19 31.84431 -12.50282 36029 ft 445 kts 30°
2026-04-28 12:19 31.89519 -12.46144 36028 ft 444 kts 30°
2026-04-28 12:20 31.94600 -12.42004 36025 ft 444 kts 30°
2026-04-28 12:20 31.99676 -12.37865 36022 ft 443 kts 30°
2026-04-28 12:21 32.04760 -12.33739 36024 ft 443 kts 30°
2026-04-28 12:21 32.09798 -12.29650 36025 ft 442 kts 30°
2026-04-28 12:22 32.14859 -12.25524 36023 ft 442 kts 30°
2026-04-28 12:22 32.19914 -12.21375 36021 ft 442 kts 30°
2026-04-28 12:23 32.24965 -12.17239 36016 ft 442 kts 30°
2026-04-28 12:23 32.30017 -12.13106 36013 ft 442 kts 30°
2026-04-28 12:24 32.35069 -12.08968 36010 ft 442 kts 30°
2026-04-28 12:24 32.40117 -12.04823 36010 ft 442 kts 30°
2026-04-28 12:25 32.45165 -12.00667 36008 ft 441 kts 30°
2026-04-28 12:25 32.50173 -11.96543 36001 ft 442 kts 30°
2026-04-28 12:26 32.55219 -11.92376 36002 ft 442 kts 30°
2026-04-28 12:26 32.60278 -11.88198 36001 ft 443 kts 30°
2026-04-28 12:27 32.65335 -11.84025 36003 ft 443 kts 31°
2026-04-28 12:27 32.70382 -11.79837 36006 ft 443 kts 31°
2026-04-28 12:28 32.75444 -11.75632 35998 ft 443 kts 31°
2026-04-28 12:28 32.80509 -11.71429 35999 ft 443 kts 31°
2026-04-28 12:29 32.88097 -11.65122 36000 ft 444 kts 31°
2026-04-28 12:30 32.93154 -11.60909 35998 ft 444 kts 31°
2026-04-28 12:30 32.98209 -11.56687 35995 ft 444 kts 31°
2026-04-28 12:31 33.03259 -11.52454 35997 ft 444 kts 31°
2026-04-28 12:31 33.08279 -11.48250 36000 ft 444 kts 31°
2026-04-28 12:32 33.13334 -11.44017 36002 ft 444 kts 31°
2026-04-28 12:32 33.18387 -11.39778 36002 ft 444 kts 31°
2026-04-28 12:33 33.23430 -11.35517 35991 ft 444 kts 32°
2026-04-28 12:33 33.28473 -11.31217 35983 ft 445 kts 32°
2026-04-28 12:34 33.33517 -11.26928 35981 ft 444 kts 32°
2026-04-28 12:34 33.38527 -11.22681 35982 ft 444 kts 32°
2026-04-28 12:35 33.43572 -11.18393 35977 ft 444 kts 32°
2026-04-28 12:35 33.48609 -11.14099 35982 ft 445 kts 32°
2026-04-28 12:36 33.52793 -11.10510 35975 ft 445 kts 32°
2026-04-28 12:36 33.57826 -11.06193 35970 ft 445 kts 32°
2026-04-28 12:37 33.62868 -11.01879 35967 ft 445 kts 32°
2026-04-28 12:37 33.67916 -10.97560 35964 ft 446 kts 32°
2026-04-28 12:38 33.72967 -10.93219 35963 ft 446 kts 32°
2026-04-28 12:38 33.78019 -10.88876 35961 ft 447 kts 33°
2026-04-28 12:39 33.83078 -10.84516 35960 ft 447 kts 33°
2026-04-28 12:39 33.88131 -10.80148 35958 ft 447 kts 33°